TimeEST,TemperatureF,Dew PointF,Humidity,Sea Level PressureIn,VisibilityMPH,Wind Direction,Wind SpeedMPH,Gust SpeedMPH,PrecipitationIn,Events,Conditions,WindDirDegrees,DateUTC
12:53 AM,68.0,66.0,93,29.87,10.0,SSW,4.6,-,N/A,,Partly Cloudy,200,2012-12-11 05:53:00
1:06 AM,68.0,66.2,94,29.87,10.0,SW,4.6,-,N/A,,Mostly Cloudy,220,2012-12-11 06:06:00
1:51 AM,66.2,64.4,94,29.87,9.0,WSW,5.8,-,N/A,,Mostly Cloudy,240,2012-12-11 06:51:00
1:53 AM,66.9,66.0,97,29.87,9.0,WSW,5.8,-,N/A,,Mostly Cloudy,240,2012-12-11 06:53:00
2:00 AM,66.2,66.2,100,29.87,9.0,West,6.9,-,N/A,,Mostly Cloudy,260,2012-12-11 07:00:00
2:43 AM,66.2,66.2,100,29.87,9.0,WSW,5.8,-,N/A,,Partly Cloudy,250,2012-12-11 07:43:00
2:53 AM,68.0,66.0,93,29.87,10.0,SW,4.6,-,N/A,,Scattered Clouds,230,2012-12-11 07:53:00
3:03 AM,68.0,66.2,94,29.87,10.0,SW,4.6,-,N/A,,Mostly Cloudy,230,2012-12-11 08:03:00
3:22 AM,68.0,66.2,94,29.88,9.0,South,5.8,-,N/A,,Overcast,180,2012-12-11 08:22:00
3:53 AM,68.0,66.0,93,29.89,7.0,South,4.6,-,N/A,,Overcast,180,2012-12-11 08:53:00
4:36 AM,68.0,66.2,94,29.89,10.0,SW,4.6,-,N/A,,Overcast,220,2012-12-11 09:36:00
4:53 AM,68.0,66.0,93,29.89,10.0,SSW,4.6,-,N/A,,Overcast,200,2012-12-11 09:53:00
5:49 AM,68.0,66.2,94,29.91,10.0,SW,4.6,-,N/A,,Overcast,230,2012-12-11 10:49:00
5:53 AM,68.0,66.0,93,29.91,10.0,SW,4.6,-,N/A,,Overcast,230,2012-12-11 10:53:00
6:00 AM,68.0,66.2,94,29.92,10.0,Calm,Calm,-,N/A,,Overcast,0,2012-12-11 11:00:00
6:09 AM,68.0,66.2,94,29.92,10.0,SSW,5.8,-,N/A,,Overcast,210,2012-12-11 11:09:00
6:48 AM,66.2,66.2,100,29.92,9.0,West,3.5,-,N/A,,Overcast,270,2012-12-11 11:48:00
6:53 AM,68.0,66.0,93,29.92,8.0,West,4.6,-,N/A,,Overcast,270,2012-12-11 11:53:00
7:18 AM,68.0,66.2,94,29.94,9.0,Calm,Calm,-,N/A,,Overcast,0,2012-12-11 12:18:00
7:46 AM,68.0,66.2,94,29.95,7.0,Calm,Calm,-,N/A,,Overcast,0,2012-12-11 12:46:00
7:53 AM,69.1,66.9,93,29.94,7.0,WSW,3.5,-,N/A,,Overcast,250,2012-12-11 12:53:00
8:53 AM,69.1,66.9,93,29.97,4.0,South,5.8,-,N/A,,Overcast,170,2012-12-11 13:53:00
9:53 AM,69.1,66.9,93,29.98,4.0,Calm,Calm,-,N/A,,Overcast,0,2012-12-11 14:53:00
10:31 AM,69.8,66.2,88,29.99,10.0,South,4.6,-,N/A,,Overcast,180,2012-12-11 15:31:00
10:53 AM,71.1,68.0,90,29.99,10.0,SSE,4.6,-,N/A,,Overcast,150,2012-12-11 15:53:00
11:24 AM,73.4,66.2,78,30.01,10.0,Variable,5.8,-,N/A,,Overcast,0,2012-12-11 16:24:00
11:46 AM,73.4,66.2,78,30.00,10.0,SSW,8.1,-,N/A,,Overcast,210,2012-12-11 16:46:00
12:08 PM,73.4,66.2,78,29.99,10.0,SW,4.6,-,N/A,,Mostly Cloudy,220,2012-12-11 17:08:00
12:38 PM,75.2,66.2,73,29.98,10.0,West,3.5,-,N/A,,Mostly Cloudy,260,2012-12-11 17:38:00
12:51 PM,77.0,66.2,69,29.98,10.0,WSW,6.9,-,N/A,,Scattered Clouds,240,2012-12-11 17:51:00
12:53 PM,77.0,66.0,69,29.97,10.0,WSW,9.2,-,N/A,,Scattered Clouds,240,2012-12-11 17:53:00
1:53 PM,77.0,64.9,66,29.95,10.0,SW,5.8,-,N/A,,Partly Cloudy,230,2012-12-11 18:53:00
2:53 PM,79.0,64.9,62,29.95,10.0,South,9.2,-,N/A,,Mostly Cloudy,190,2012-12-11 19:53:00
3:53 PM,79.0,64.0,60,29.94,10.0,SSW,6.9,-,N/A,,Clear,200,2012-12-11 20:53:00
4:53 PM,75.9,64.9,69,29.96,10.0,SSW,3.5,-,N/A,,Mostly Cloudy,200,2012-12-11 21:53:00
5:53 PM,72.0,66.0,81,29.97,10.0,Calm,Calm,-,N/A,,Mostly Cloudy,0,2012-12-11 22:53:00
7:53 PM,66.9,64.9,93,29.98,10.0,Calm,Calm,-,N/A,,Clear,0,2012-12-12 00:53:00
8:53 PM,68.0,64.9,90,30.01,10.0,North,4.6,-,N/A,,Clear,350,2012-12-12 01:53:00
9:29 PM,68.0,64.4,88,30.03,10.0,Calm,Calm,-,N/A,,Scattered Clouds,0,2012-12-12 02:29:00
9:38 PM,68.0,64.4,88,30.03,10.0,North,3.5,-,N/A,,Mostly Cloudy,10,2012-12-12 02:38:00
9:53 PM,66.9,64.0,90,30.03,10.0,North,8.1,-,N/A,,Overcast,360,2012-12-12 02:53:00
10:53 PM,66.0,63.0,90,30.06,10.0,NE,6.9,-,N/A,,Overcast,40,2012-12-12 03:53:00
11:01 PM,64.4,62.6,94,30.06,10.0,ENE,4.6,-,N/A,,Overcast,60,2012-12-12 04:01:00
11:36 PM,64.4,62.6,94,30.05,10.0,NNE,5.8,-,N/A,,Overcast,20,2012-12-12 04:36:00
11:53 PM,64.9,62.1,90,30.04,10.0,Calm,Calm,-,N/A,,Overcast,0,2012-12-12 04:53:00